Weather History for PAMC - January, 2013

Change the Weather History Date:

Tuesday, January 15, 2013

  Actual Average Record
Temperature  
Mean Temperature 13 °F -7 °F  
Max Temperature 20 °F - 42 °F (2009)
Min Temperature 6 °F -16 °F -60 °F (1991)
Degree Days  
Heating Degree Days 52 72  
Month to date heating degree days 785 1079  
Since 1 July heating degree days 7550 7325  
Cooling Degree Days 0    
Month to date cooling degree days 0  
Year to date cooling degree days 0  
Moisture  
Dew Point 9 °F    
Average Humidity 0    
Maximum Humidity 0    
Minimum Humidity 0    
Precipitation  
Precipitation T in 0.04 in 0.64 in (1948)
Month to date precipitation 1.91 0.57  
Year to date precipitation 1.91 0.57  
Snow  
Snow T in 0.50 in 8.00 in (1948)
Month to date snowfall 14.1 8.1  
Since 1 July snowfall 47.8 59.3  
Snow Depth 35.00 in    
Sea Level Pressure  
Sea Level Pressure 30.17 in    
Wind  
Wind Speed 3 mph (South)    
Max Wind Speed 10 mph    
Max Gust Speed 14 mph    
Visibility 10 miles    
Events Snow    
T = Trace of Precipitation, MM = Missing Value Source: NWS Daily Summary

Daily Weather History Graph

Daily Weather History Graph

Search for Another Location

Airport or City:

Trip Planner

Search our weather history database for the weather conditions in past years. The results will help you decide how hot, cold, wet, or windy it might be!

Date:

Astronomy

Jan. 15, 2013 Rise Set
Actual Time 10:35 AM AKST 4:29 PM AKST
Civil Twilight 9:33 AM AKST 5:31 PM AKST
Nautical Twilight 8:32 AM AKST 6:32 PM AKST
Astronomical Twilight 7:37 AM AKST 7:27 PM AKST
Moon 10:54 AM AKST (1/15) 11:33 PM AKST (1/15)
Length of Visible Light 7h 58m
Length of Day
5h 54m
Waxing Crescent, 20% of the Moon is Illuminated
Jan 15
Waxing Crescent
Jan 18
First Quarter
Jan 26
Full
Feb 3
Last Quarter
Feb 9
New

Hourly Weather History & Observations

Time (AKST) Temp. Windchill Dew Point Humidity Pressure Visibility Wind Dir Wind Speed Gust Speed Precip Events Conditions
12:53 AM 12.0 °F 4.1 °F 7.0 °F 80% 30.07 in 10.0 mi South 4.6 mph - N/A   Clear
1:53 AM 8.1 °F - 3.9 °F 83% 30.09 in 10.0 mi Calm Calm - N/A   Partly Cloudy
3:53 AM 7.0 °F - 3.9 °F 87% 30.12 in 10.0 mi Calm Calm - N/A   Overcast
4:53 AM 14.0 °F - 8.1 °F 77% 30.12 in 10.0 mi Calm Calm - N/A   Overcast
5:53 AM 12.9 °F - 7.0 °F 77% 30.15 in 10.0 mi Calm Calm - N/A   Overcast
6:53 AM 15.1 °F 6.4 °F 8.1 °F 74% 30.16 in 10.0 mi South 5.8 mph - N/A   Overcast
7:53 AM 16.0 °F 7.4 °F 9.0 °F 74% 30.16 in 10.0 mi SW 5.8 mph - N/A   Overcast
8:53 AM 15.1 °F - 9.0 °F 77% 30.16 in 10.0 mi Calm Calm - N/A   Overcast
9:53 AM 17.1 °F 5.8 °F 10.0 °F 74% 30.18 in 10.0 mi SSW 9.2 mph - N/A   Overcast
10:53 AM 18.0 °F 12.7 °F 10.9 °F 74% 30.18 in 9.0 mi SE 3.5 mph - N/A Snow Light Snow
11:53 AM 18.0 °F 11.1 °F 10.9 °F 74% 30.19 in 10.0 mi SE 4.6 mph - 0.00 in   Mostly Cloudy
12:53 PM 18.0 °F 12.7 °F 12.0 °F 78% 30.19 in 10.0 mi SE 3.5 mph - N/A   Mostly Cloudy
1:53 PM 19.9 °F 11.1 °F 10.9 °F 68% 30.20 in 10.0 mi Variable 6.9 mph - N/A   Mostly Cloudy
2:53 PM 19.9 °F 11.1 °F 10.9 °F 68% 30.20 in 10.0 mi Variable 6.9 mph - N/A   Mostly Cloudy
3:53 PM 19.0 °F 12.3 °F 12.0 °F 74% 30.20 in 9.0 mi South 4.6 mph - 0.00 in Snow Light Snow
4:53 PM 19.0 °F 10.0 °F 12.0 °F 74% 30.21 in 9.0 mi South 6.9 mph - 0.00 in   Overcast
5:53 PM 18.0 °F - 12.0 °F 78% 30.21 in 10.0 mi Calm Calm - 0.00 in   Overcast
8:53 PM 17.1 °F - 10.9 °F 77% 30.21 in 10.0 mi Calm Calm - N/A   Overcast
11:53 PM 9.0 °F - 5.0 °F 84% 30.20 in 10.0 mi Calm Calm - N/A   Clear